Showing default

PIESAT-2 11, 62335

Orbit data source: Space-Track

PIESAT-2 11, 62335 is a payload satellite owned by Hangtian Hongtu (CN) in SSO that was launched on Mon, 16 Dec 2024 UTC via a CHANG ZHENG 2D launch vehicle from the Taiyaun Space Center, China (TSC). Payload-class satellites include a variety of spacecraft equipped with specific instruments for various scientific and technological missions. These include communications satellites like Starlink; space stations such as the ISS; scientific satellites like the Hubble; Earth observation satellites from companies like Planet Labs, Umbra, and HawkEye 360; GPS; miniature CubeSats for education and research; and military/defense satellites.

Loading next visibility...
Identifier
62335, 2024-241C
Orbit
SSO
Country
Flag of CNCN / PRC
Related business
Manufacturer
Yinhe
Mission
Operational Commercial Radar Imaging
Bus & Motor
PIESAT, Unknown motor
Mass
270 kg wet, 270 kg dry
Launch date (UTC)
2024-12-16 (2 years ago)
Launch vehicle
CHANG ZHENG 2D
Launch site
Taiyaun Space Center, China (TSC)
Object type
Payload
Rocket body
Debris
Shape & HBR
Box + 2 Pan, 2.0 m
Radar Cross Section
2.315 m², Large (>1 m²)

Expand to show TLE details & history
Last TLE update: 7 hours ago

TLE from 7 hours ago
0 PIESAT-2 11
1 62335U 24241C   26171.55573236  .00006432  00000-0  35744-3 0  9996
2 62335  97.5280 119.0609 0001517  70.5102 289.6294 15.14040789 83322
Epoch: 2026-06-20T13:20Z
TLE epoch observation values (Epoch: 2026-06-20T13:20:15.275Z)
Latitude
0.00002°
Longitude
10.22858°
Altitude
526.619 km
Speed
7.6 km/s
True Right ascension
07h 56m 14s
True Declination
0° 00' 00"
Sunlit
Object was in daylight at epoch
Visualization orbit readout
Latitude
Unknown
Longitude
Unknown
Altitude
Unknown
Speed
Unknown
Apparent Right ascension
Unknown
Apparent Declination
Unknown
Sunlit
N/A
Visualization observer readout
Local Sidereal Time
07:11:56
Azimuth
Unknown
Elevation
Unknown
Doppler factor
Unknown
Orbital elements
Apogee altitude
521.918 km
Perigee altitude
519.825 km
Semi-major axis
6,899.008 km
Eccentricity
0.00015
Inclination
97.528°
RAAN
119.0609°
Arg. of periapsis
70.5102°
True anomaly
289.61303°
Mean anomaly
289.6294°
Eccentric anomaly
289.62121°
Mean motion
3.78759 °/min
Orbital period
95.05 mins
BSTAR
0.00035744
Loading maneuver chart data...
Computing Atmospheric mass density...
Loading historical data...
Loading historical data...
Loading historical data...
Loading historical data...
Loading historical data...
Loading historical data...
Loading historical data...
Other satellites on launch #241 in the year 2024 (2024-12-16 UTC)

Documentation

Showing up to 5 results
|